Location: Unspecified
(49.8670°N, 0.0000°E)
Time: 14:32:56
(UTC+00:00)

Courier 1B - Pass Details

Date: 17 June 2019
Orbit: 963 x 1209 km, 28.3° (Epoch: 15 July)

Event Time Altitude Azimuth Distance (km) Brightness Sun altitude
Rises 22:55:49 0° 237° (WSW) 4,074 10.6 -15.3°
Reaches altitude 10° 23:00:31 10° 212° (SSW) 3,133 9.7 -15.5°
Enters shadow 23:01:33 12° 205° (SSW) 3,013 9.6 -15.6°
